Starlink 31041

operational
NORAD ID: 58537 Int'l Des: 2023-192 Owner: SPXS Country: US Constellation: starlink
LEOCIRCULAR

About Starlink 31041

Description loading...

Live Position

Loading 3D Globe...

Upcoming Passes

Altitude History

Altitude vs Time

uPlot chart will show altitude changes over time

Two-Line Element Set

1 58537U 23192G 25258.43479317 .00001194 00000-0 52433-4 0 9991
2 58537 53.1611 156.7400 0001161 93.4790 266.6343 15.30197177 99156
Epoch: Sep 15, 2025 • Age: 22 hours

Current Status

Altitude 491.5 km
Velocity 7.62 km/s
Sub-Earth Point -45.84°S, 14.66°W
Launch Date Dec 8, 2023
Age 1.7 years
Type internet

Technical Details

Classification Payload
Mass 730.00 kg
Dry Mass 700.00 kg
Total Mass 730.00 kg
Length 0.30 m
Diameter 4.10 m
Span 29.00 m
Shape Box + pan
Manufacturer SPXS
Bus Type Starlink V2M
Phase Status In Orbit
Owner/State SPXS/US

Large Constellations

Loading constellations...